ラーソン彗星

P/2007 R1 ( Larson )

English version
Home page
Total 6,336 html files since Dec. 4, 1995
Updated on April 4, 2008

---------------------------------------------------------------------

・ プロフィール

発見日 2007年9月4日
発見光度 18.2等
発見者 S. Larson (Mt. Lemmon Survey)

・ 写真集

・ 軌道要素

Epoch 2007 Aug. 8.0 TT = JDT 2454320.5
T 2007 Aug. 23.76187 TT                                 MPC
q   4.3521383            (2000.0)            P               Q
n   0.06667791     Peri.  175.14275     +0.99842552     +0.05595196
a   6.0230257      Node   181.66544     -0.05496751     +0.96175612
e   0.2774166      Incl.    7.87723     -0.01118304     +0.26813157
P  14.78

・ 光度変化

        m1 = 9.0 + 5 logΔ + 10.0 log r

---------------------------------------------------------------------

軌道要素はM.P.E.C. 2008-D54に掲載されたものです。
光度グラフはComet for Windowsで作成したものです。

---------------------------------------------------------------------

Copyright(C) 1995-2008 Seiichi Yoshida (comet@aerith.net). All rights reserved.